Location: 22
(39.7117°N, 89.5929°W)
Time: 09:50:53
(UTC-05:00)

S-56A Canister/Altair - Pass Details

Date: 08 February 2023
Orbit: 638 x 2493 km, 38.9° (Epoch: 25 March)

Event Time Altitude Azimuth Distance (km) Brightness Sun altitude
Rises 10:56:48 0° 263° (W) 2,941 10.4 32.6°
Reaches altitude 10° 10:59:03 10° 263° (W) 2,020 9.7 32.7°
Maximum altitude 11:03:29 81° 176° (S) 687 8.1 33.1°
Drops below altitude 10° 11:08:45 10° 89° (E) 2,375 10.4 33.4°
Sets 11:11:35 0° 89° (E) 3,514 11.1 33.6°
